Date,TemperatureHighF,TemperatureAvgF,TemperatureLowF,DewpointHighF,DewpointAvgF,DewpointLowF,HumidityHigh,HumidityAvg,HumidityLow,PressureMaxIn,PressureMinIn,WindSpeedMaxMPH,WindSpeedAvgMPH,GustSpeedMaxMPH,PrecipitationSumIn
2013-1-10,38.3,32.5,28.0,55.0,54.1,54.0,0,0,100,30.50,30.19,20,10,20,0.00
2013-1-11,34.0,29.5,23.5,55.0,54.1,53.1,0,0,100,30.53,30.27,11,2,11,0.00
2013-1-12,39.7,36.0,31.6,55.9,55.0,54.0,0,0,100,30.28,30.10,5,0,5,0.00
2013-1-13,43.0,39.3,36.7,57.0,55.3,55.0,0,0,100,30.15,29.93,7,1,7,0.00
2013-1-14,48.9,41.6,33.8,57.0,55.9,55.0,0,0,100,30.19,29.82,11,3,11,0.00
2013-1-15,34.3,31.3,26.8,55.9,55.2,55.0,0,0,100,30.32,30.17,10,2,10,0.00
2013-1-16,33.4,29.3,26.6,55.9,55.2,55.0,0,0,100,30.27,29.74,5,0,5,0.00
2013-1-17,36.5,26.9,9.7,55.9,54.7,54.0,0,0,100,30.15,29.72,13,4,13,0.00
2013-1-18,10.9,7.5,2.3,54.0,52.3,51.1,0,0,100,30.38,30.11,14,4,14,0.00
2013-1-19,31.6,25.0,7.5,54.0,53.5,52.0,0,0,100,30.36,29.90,9,1,9,0.00
2013-1-20,46.8,36.0,20.3,55.0,54.5,54.0,0,0,100,29.90,29.41,21,6,21,0.00
2013-1-21,20.1,16.3,10.0,54.0,53.2,52.0,0,0,100,30.02,29.80,21,3,21,0.00
2013-1-22,16.9,9.1,5.0,53.1,52.4,52.0,0,0,100,29.96,29.78,15,4,15,0.00
2013-1-23,5.4,0.3,-5.3,52.0,50.3,48.9,0,0,100,30.03,29.96,15,4,15,0.00
2013-1-24,10.2,0.8,-7.2,50.0,49.5,48.9,0,0,100,30.04,29.85,18,5,18,0.00
2013-1-25,18.3,9.3,0.7,51.1,50.1,48.9,0,0,100,30.14,30.03,20,5,20,0.00
2013-1-26,17.1,11.1,5.2,51.1,50.6,48.9,0,0,100,30.07,29.94,16,5,16,0.00
2013-1-27,19.8,13.0,5.7,52.0,50.7,48.9,0,0,100,30.37,30.06,17,9,17,0.00
2013-1-28,27.1,18.5,8.6,53.1,51.5,50.0,0,0,100,30.39,30.07,10,0,10,0.00
2013-1-29,34.3,26.2,14.5,54.0,52.4,51.1,0,0,100,30.22,30.07,4,0,4,0.00
2013-1-30,48.4,41.2,31.5,55.9,54.0,53.1,0,0,100,30.18,29.44,15,8,15,0.00
2013-1-31,52.9,50.0,46.8,62.1,55.8,54.0,0,0,100,29.44,28.84,26,13,26,0.00
2013-2-9,10.9,9.8,8.6,62.1,58.8,53.1,0,0,100,29.72,29.69,23,9,23,0.00
2013-2-18,26.4,23.0,19.6,54.0,53.0,51.1,0,0,100,29.92,29.57,37,15,37,0.00
2013-2-19,41.0,29.8,16.2,54.0,53.2,52.0,0,0,100,30.07,29.67,13,2,13,0.00
2013-2-20,42.3,35.2,27.3,55.0,54.0,53.1,0,0,100,29.67,29.37,20,6,20,0.00
2013-2-21,33.4,27.1,20.7,54.0,53.5,53.1,0,0,100,30.10,29.57,26,8,26,0.00
2013-2-22,37.9,30.7,24.3,55.0,53.7,53.1,0,0,100,30.38,30.10,18,5,18,0.00
2013-2-23,32.9,28.1,20.7,55.0,53.8,53.1,0,0,100,30.36,30.07,8,2,8,0.00
2013-2-24,30.9,28.6,25.5,55.0,54.1,54.0,0,0,100,30.08,29.80,10,3,10,0.00
2013-2-25,37.2,28.7,22.3,55.0,54.0,53.1,0,0,100,30.23,29.88,12,4,12,0.00
2013-2-26,43.0,32.4,25.7,55.0,54.0,53.1,0,0,100,30.36,30.23,4,0,4,0.00
2013-2-27,41.4,32.3,26.8,55.0,54.3,54.0,0,0,100,30.29,29.74,12,3,12,0.00
2013-2-28,40.3,34.8,30.7,55.9,54.6,54.0,0,0,100,29.75,29.53,15,6,15,0.00
2013-3-1,32.0,31.0,30.0,55.0,54.6,54.0,0,0,100,29.63,29.51,15,7,15,0.00
2013-3-2,36.0,32.7,30.0,55.9,54.3,54.0,0,0,100,29.61,29.57,13,4,13,0.00
2013-3-3,43.2,36.0,33.1,55.9,54.8,54.0,0,0,100,29.58,29.46,9,3,9,0.00
2013-3-4,34.5,32.3,30.6,55.9,54.7,54.0,0,0,100,29.65,29.42,14,6,14,0.00
2013-3-5,42.1,35.5,32.7,55.9,54.9,54.0,0,0,100,30.14,29.65,13,7,13,0.00
2013-3-6,40.5,34.0,31.5,55.9,55.1,54.0,0,0,100,30.30,30.14,14,6,14,0.00
2013-3-7,38.1,33.2,30.7,55.9,54.8,54.0,0,0,100,30.26,30.11,16,7,16,0.00
2013-3-8,45.5,35.6,29.3,55.9,54.9,54.0,0,0,100,30.22,30.07,20,5,20,0.00
2013-3-9,42.1,33.7,27.9,55.9,54.6,54.0,0,0,100,30.39,30.19,17,5,17,0.00
2013-3-10,38.8,31.3,25.7,55.0,54.1,53.1,0,0,100,30.43,30.30,9,1,9,0.00
2013-3-11,42.4,37.6,32.5,55.9,54.6,54.0,0,0,100,30.33,30.17,13,6,13,0.00
2013-3-12,50.2,43.3,38.8,55.9,55.2,55.0,0,0,100,30.18,29.81,13,6,13,0.00
2013-3-13,48.2,41.2,32.5,57.0,55.3,54.0,0,0,100,29.81,29.64,15,4,15,0.00
2013-3-14,42.1,33.5,23.5,55.9,54.8,53.1,0,0,100,29.68,29.59,18,4,18,0.00
2013-3-15,34.2,25.6,16.9,55.0,53.7,52.0,0,0,100,29.75,29.59,16,6,18,0.00
2013-3-16,36.0,28.4,21.7,55.0,53.7,53.1,0,0,100,29.88,29.60,12,5,12,0.00
2013-3-17,33.6,22.9,15.4,54.0,53.2,52.0,0,0,100,30.28,29.88,20,4,20,0.00
2013-3-18,34.5,23.4,10.6,54.0,52.6,51.1,0,0,100,30.42,30.28,11,1,11,0.00
2013-3-19,27.0,24.4,21.7,54.0,53.3,53.1,0,0,100,30.30,29.66,12,4,12,0.00
2013-3-20,36.1,26.4,17.1,54.0,53.2,52.0,0,0,100,29.68,29.55,20,6,20,0.00
2013-3-21,42.6,31.0,21.6,55.0,53.6,52.0,0,0,100,29.76,29.60,9,2,9,0.00
2013-3-22,43.2,30.7,22.3,54.0,53.3,52.0,0,0,100,29.60,29.54,15,4,15,0.00
2013-3-23,45.7,32.7,23.4,54.0,53.4,53.1,0,0,100,29.59,29.40,16,7,16,0.00
2013-3-24,48.4,37.4,31.5,55.9,54.1,53.1,0,0,100,29.76,29.56,14,6,14,0.00
2013-3-25,51.1,37.7,29.7,55.9,54.4,53.1,0,0,100,29.76,29.59,12,4,12,0.00
2013-3-26,49.5,38.4,29.5,55.0,54.6,54.0,0,0,100,29.68,29.53,15,8,15,0.00
2013-3-27,40.8,36.6,34.5,55.9,54.3,53.1,0,0,100,29.85,29.66,13,6,13,0.00
2013-3-28,48.9,39.8,33.6,55.9,54.9,54.0,0,0,100,29.94,29.85,10,3,10,0.00
2013-3-29,56.5,44.9,37.6,55.9,55.4,54.0,0,0,100,29.98,29.91,10,3,10,0.00
2013-3-30,54.9,42.9,31.3,57.0,55.4,54.0,0,0,100,30.07,29.96,11,3,11,0.00
2013-3-31,54.3,40.3,27.0,55.9,54.8,54.0,0,0,100,30.12,29.89,11,3,11,0.00
2013-4-1,44.8,39.4,31.3,55.9,54.8,54.0,0,0,100,29.89,29.50,17,5,17,0.00
2013-4-2,39.4,31.1,24.8,55.9,54.2,53.1,0,0,100,29.78,29.63,19,4,19,0.00
2013-4-3,41.0,31.9,25.7,55.0,53.9,53.1,0,0,100,29.97,29.74,13,3,13,0.00
2013-4-4,50.7,38.5,26.6,55.0,54.3,54.0,0,0,100,30.15,29.95,10,1,10,0.00
2013-4-5,53.4,41.5,34.5,55.9,54.8,53.1,0,0,100,29.95,29.64,16,4,16,0.00
2013-4-6,39.9,32.7,27.3,55.0,53.8,53.1,0,0,100,30.34,29.76,21,3,21,0.00
2013-4-7,46.8,35.2,24.6,55.9,54.3,54.0,0,0,100,30.35,29.96,18,6,18,0.00
2013-4-8,60.1,47.2,37.4,57.9,56.1,55.0,0,0,100,30.16,29.88,15,3,15,0.00
2013-4-9,42.6,39.7,36.0,57.0,55.2,54.0,0,0,100,30.16,29.92,0,0,0,0.00
2013-4-10,52.2,42.2,37.9,55.9,55.2,55.0,0,0,100,29.99,29.89,6,1,6,0.00
2013-4-11,51.6,42.0,34.2,57.0,55.6,54.0,0,0,100,30.19,29.87,17,3,17,0.00
2013-4-12,39.7,33.5,30.9,55.9,54.9,54.0,0,0,100,30.27,29.93,8,1,8,0.00
2013-4-13,41.7,35.9,31.6,55.9,55.2,55.0,0,0,100,29.94,29.80,7,1,7,0.00
2013-4-14,49.5,40.4,36.3,55.9,55.2,54.0,0,0,100,30.16,29.91,10,1,10,0.00
2013-4-15,54.5,41.5,32.9,57.9,55.8,54.0,0,0,100,30.43,30.16,10,3,10,0.00
2013-4-16,51.4,43.0,38.3,55.9,55.1,54.0,0,0,100,30.44,29.93,23,9,23,0.00
2013-4-17,60.8,50.6,41.5,57.9,56.4,55.0,0,0,100,30.37,29.93,19,4,19,0.00
2013-4-18,52.2,42.5,33.3,57.0,55.8,55.0,0,0,100,30.49,30.15,14,3,14,0.00
2013-4-19,56.1,49.4,43.3,57.0,55.8,55.0,0,0,100,30.15,29.68,18,10,18,0.00
2013-4-20,54.9,49.2,40.3,57.9,57.0,55.9,0,0,100,30.12,29.57,17,5,17,0.00
2013-4-21,53.2,41.7,32.5,57.0,55.9,55.0,0,0,100,30.71,30.12,13,4,13,0.00
2013-4-22,55.8,41.4,29.7,57.9,55.9,54.0,0,0,100,30.83,30.69,10,2,10,0.00
2013-4-23,51.1,39.4,30.7,55.9,55.1,54.0,0,0,100,30.69,30.23,9,2,9,0.00
2013-4-24,53.6,46.8,41.4,57.0,55.9,55.0,0,0,100,30.23,29.77,11,4,11,0.00
2013-4-25,64.2,50.8,43.3,57.9,56.7,55.9,0,0,100,30.29,29.79,17,5,17,0.00
2013-4-26,63.0,48.4,36.1,57.9,57.2,55.0,0,0,100,30.44,30.29,8,1,8,0.00
2013-4-27,66.2,47.5,34.0,59.0,57.5,55.9,0,0,100,30.44,30.30,9,1,9,0.00
2013-4-28,69.3,51.3,37.4,60.1,58.2,55.9,0,0,100,30.34,30.26,12,2,12,0.00
2013-4-29,69.6,51.4,38.8,61.0,59.1,57.0,0,0,100,30.30,30.24,10,2,10,0.00
2013-4-30,72.7,53.3,39.6,61.0,59.6,57.9,0,0,100,30.38,30.27,10,1,10,0.00
2013-5-1,73.6,53.4,39.4,62.1,60.2,57.9,0,0,100,30.47,30.38,10,1,10,0.00
2013-5-2,67.8,51.0,41.4,60.1,59.6,59.0,0,0,100,30.55,30.43,8,1,8,0.00
2013-5-3,72.1,52.7,40.3,62.1,60.1,57.9,0,0,100,30.57,30.38,10,3,10,0.00
2013-5-4,70.2,50.3,39.4,61.0,60.2,57.9,0,0,100,30.42,30.32,12,2,12,0.00
2013-5-5,66.4,48.9,36.9,62.1,59.8,57.9,0,0,100,30.35,30.25,13,4,13,0.00
2013-5-6,68.0,50.2,39.4,62.1,60.1,57.9,0,0,100,30.29,30.17,13,4,13,0.00
2013-5-7,72.0,52.3,42.3,62.1,60.1,59.0,0,0,100,30.19,30.10,13,4,13,0.00
2013-5-8,77.4,58.9,47.8,63.0,61.2,60.1,0,0,100,30.27,30.17,13,3,13,0.00
2013-5-9,58.5,54.4,51.1,62.1,61.9,61.0,0,0,100,30.17,29.93,6,1,6,0.00
2013-5-10,74.3,56.9,49.3,63.0,61.9,61.0,0,0,100,29.99,29.90,12,2,12,0.00
2013-5-11,54.7,52.0,48.7,62.1,61.4,61.0,0,0,100,29.97,29.71,12,4,12,0.00
2013-5-12,55.0,52.9,47.5,62.1,61.0,60.1,0,0,100,29.72,29.54,11,1,11,0.00
2013-5-13,59.9,48.2,38.3,62.1,60.5,59.0,0,0,100,30.00,29.69,12,2,12,0.00
2013-5-14,61.9,49.6,41.7,61.0,60.0,59.0,0,0,100,30.01,29.93,10,4,10,0.00
2013-5-15,69.1,50.9,37.6,62.1,60.1,57.9,0,0,100,30.00,29.69,13,3,13,0.00
2013-5-16,71.1,55.9,46.8,62.1,60.6,59.0,0,0,100,29.77,29.56,11,3,11,0.00
2013-5-17,63.5,53.4,46.4,62.1,61.5,60.1,0,0,100,30.20,29.76,15,6,15,0.00
2013-5-18,69.6,50.3,41.4,62.1,60.6,59.0,0,0,100,30.36,30.20,8,2,8,0.00
2013-5-19,66.9,51.7,39.9,62.1,60.7,59.0,0,0,100,30.40,30.26,9,3,9,0.00
2013-5-20,61.9,53.5,48.4,62.1,61.1,60.1,0,0,100,30.27,29.94,9,1,9,0.00
2013-5-21,52.7,50.3,47.7,62.1,60.9,60.1,0,0,100,30.09,30.00,4,0,4,0.00
2013-5-22,53.1,49.5,47.5,61.0,60.1,59.0,0,0,100,30.07,29.94,9,2,9,0.00
2013-5-23,59.4,52.8,46.8,61.0,59.9,59.0,0,0,100,29.98,29.83,8,2,8,0.00
2013-5-24,59.2,54.9,48.6,66.0,62.1,60.1,0,0,100,29.86,29.67,13,5,13,0.00
2013-5-25,49.6,48.3,47.5,68.0,65.6,64.9,0,0,100,29.84,29.70,16,7,16,0.00
2013-5-26,50.7,47.1,42.8,70.0,66.6,64.9,0,0,100,29.92,29.64,11,2,11,0.00
2013-5-27,65.8,51.8,39.0,68.0,66.8,66.0,0,0,100,30.17,29.91,14,5,14,0.00
2013-5-28,73.4,55.5,40.5,70.0,68.1,66.0,0,0,100,30.24,30.17,3,0,3,0.00
2013-5-29,54.5,51.2,46.2,68.0,67.1,64.9,0,0,100,30.24,30.00,7,0,7,0.00
2013-5-30,78.3,62.4,50.5,70.0,68.3,66.9,0,0,100,30.03,29.96,7,1,7,0.00
2013-5-31,88.2,69.0,57.0,75.9,71.5,68.0,0,0,100,30.04,29.87,6,1,6,0.00
2013-6-1,88.3,72.6,61.9,73.0,72.1,70.0,0,0,100,29.93,29.81,11,2,11,0.00
2013-6-2,83.5,67.4,59.4,73.0,71.8,71.1,0,0,100,29.82,29.70,11,3,11,0.00
2013-6-3,69.4,61.4,57.0,72.0,70.5,69.1,0,0,100,29.83,29.70,8,1,8,0.00
2013-6-4,69.4,59.4,51.3,71.1,69.5,68.0,0,0,100,30.01,29.76,17,6,17,0.00
2013-6-5,75.7,59.5,49.8,70.0,68.7,68.0,0,0,100,30.16,30.01,10,4,10,0.00
2013-6-6,73.6,59.1,48.0,69.1,68.0,66.9,0,0,100,30.22,30.15,9,1,9,0.00
2013-6-7,67.6,57.7,53.1,68.0,67.6,66.9,0,0,100,30.18,30.01,6,1,6,0.00
2013-6-8,59.5,55.6,52.3,68.0,66.6,66.0,0,0,100,30.01,29.66,14,4,14,0.00
2013-6-9,68.4,57.3,51.4,66.9,66.2,64.9,0,0,100,30.14,29.96,9,2,9,0.00
2013-6-10,73.6,60.6,53.4,69.1,67.2,66.0,0,0,100,30.22,30.06,10,1,10,0.00
2013-6-11,55.8,54.3,52.5,68.0,66.3,64.9,0,0,100,30.06,29.54,10,2,10,0.00
2013-6-12,58.3,54.7,52.3,66.0,65.1,64.9,0,0,100,29.73,29.49,15,5,15,0.00
2013-6-13,75.2,59.1,51.3,66.9,65.5,64.0,0,0,100,29.79,29.72,11,3,11,0.00
2013-6-14,68.5,58.7,51.4,66.9,66.1,64.9,0,0,100,29.75,29.66,6,1,6,0.00
2013-6-15,79.9,63.6,49.5,68.0,66.8,64.9,0,0,100,29.87,29.71,11,4,11,0.00
2013-6-16,79.3,63.1,53.4,69.1,67.9,66.0,0,0,100,29.90,29.72,11,2,11,0.00
2013-6-17,81.0,63.7,53.4,71.1,68.9,66.9,0,0,100,29.85,29.71,11,2,11,0.00
2013-6-18,72.3,61.9,54.3,71.1,69.5,68.0,0,0,100,29.96,29.84,9,1,9,0.00
2013-6-19,77.7,63.4,52.2,70.0,69.1,68.0,0,0,100,30.13,29.92,11,4,11,0.00
2013-6-20,81.9,63.8,50.4,71.1,69.4,68.0,0,0,100,30.25,30.13,7,2,7,0.00
2013-6-21,83.5,64.9,54.9,70.0,69.3,68.0,0,0,100,30.22,30.15,7,1,7,0.00
2013-6-22,75.6,64.8,58.5,71.1,69.6,69.1,0,0,100,30.20,30.11,3,0,3,0.00
2013-6-23,73.6,63.5,58.1,70.0,69.3,68.0,0,0,100,30.14,29.96,7,1,7,0.00
2013-6-24,87.1,72.2,61.3,72.0,70.5,69.1,0,0,100,29.96,29.80,9,2,9,0.04
2013-6-25,88.7,74.6,66.7,73.9,72.7,71.1,0,0,100,29.84,29.70,9,2,9,0.00
2013-6-26,72.1,65.9,60.4,73.9,72.5,71.1,0,0,100,29.88,29.69,7,1,7,0.00
2013-6-27,64.8,59.1,55.8,71.1,70.4,69.1,0,0,100,29.91,29.86,9,1,9,0.00
2013-6-28,61.9,58.8,56.1,70.0,69.0,68.0,0,0,100,29.89,29.60,15,2,15,0.00
2013-6-29,66.7,61.8,59.4,69.1,68.5,68.0,0,0,100,29.72,29.58,8,1,8,0.00
2013-6-30,77.7,65.4,61.2,69.1,68.8,68.0,0,0,100,29.94,29.71,7,1,7,0.00
2013-7-1,74.7,66.7,61.9,71.1,70.1,69.1,0,0,100,30.12,29.93,3,0,3,0.00
2013-7-2,67.5,60.2,57.4,71.1,69.8,69.1,0,0,100,30.23,30.10,6,2,6,0.00
2013-7-3,80.1,64.7,57.7,70.0,69.3,68.0,0,0,100,30.19,30.11,8,1,8,0.00
2013-7-4,89.4,73.6,61.0,73.0,71.3,70.0,0,0,100,30.16,30.04,9,2,9,0.00
2013-7-5,94.3,78.4,66.9,75.9,73.7,72.0,0,0,100,30.09,29.99,10,2,10,0.00
2013-7-6,89.8,77.8,69.6,75.9,75.3,73.9,0,0,100,30.01,29.90,11,2,11,0.00
2013-7-7,91.8,78.6,67.1,77.0,76.3,75.0,0,0,100,29.94,29.87,9,2,9,0.00
2013-7-8,76.6,69.0,57.9,77.0,75.9,75.0,0,0,100,30.09,29.89,10,2,10,0.00
2013-7-9,78.1,66.8,61.9,75.9,74.4,73.9,0,0,100,30.14,30.08,7,1,7,0.00
2013-7-10,71.1,64.4,61.3,73.9,73.3,72.0,0,0,100,30.11,29.79,7,1,7,0.00
2013-7-11,73.8,67.7,63.0,73.0,72.7,72.0,0,0,100,29.96,29.75,9,0,9,0.00
2013-7-12,84.2,69.4,60.3,73.9,73.0,72.0,0,0,100,30.22,29.96,10,4,10,0.00
2013-7-13,88.3,70.2,57.7,75.0,73.7,72.0,0,0,100,30.32,30.22,8,1,8,0.00
2013-7-14,91.8,73.4,60.8,75.9,74.4,73.0,0,0,100,30.28,30.17,7,1,7,0.00
2013-7-15,95.5,78.3,65.5,78.1,75.8,73.9,0,0,100,30.17,30.04,10,1,10,0.00
2013-7-16,95.4,79.6,66.7,78.1,77.4,75.9,0,0,100,30.19,30.07,9,3,9,0.00
2013-7-17,82.8,71.6,63.9,78.1,77.0,75.9,0,0,100,30.19,29.91,10,3,10,0.00
2013-7-18,87.3,74.1,65.1,78.1,77.3,75.9,0,0,100,30.01,29.91,9,2,9,0.00
2013-7-19,88.3,73.1,65.8,78.1,76.7,75.9,0,0,100,29.95,29.61,9,2,9,0.00
2013-7-20,89.1,74.8,64.0,79.0,77.3,75.9,0,0,100,29.78,29.57,22,2,22,0.00
2013-7-21,78.8,67.3,59.5,77.0,76.2,75.0,0,0,100,30.04,29.78,10,3,10,0.00
2013-7-22,78.1,65.5,57.4,75.9,75.0,73.9,0,0,100,30.06,29.96,6,1,6,0.00
2013-7-23,67.3,63.8,59.2,73.9,73.5,73.0,0,0,100,29.96,29.54,5,0,5,0.00
2013-7-24,82.4,67.0,57.0,75.0,73.6,73.0,0,0,100,29.97,29.55,11,3,11,0.00
2013-7-25,74.7,64.0,53.1,73.9,73.0,71.1,0,0,100,30.14,29.97,10,3,10,0.00
2013-7-26,67.3,63.1,61.2,73.0,72.7,72.0,0,0,100,30.10,29.86,15,6,15,0.00
2013-7-27,81.3,66.9,60.1,73.0,72.5,71.1,0,0,100,30.06,29.86,10,3,10,0.00
2013-7-28,72.5,66.1,60.1,73.9,72.9,72.0,0,0,100,30.07,30.03,7,1,7,0.00
2013-7-29,73.8,66.7,62.8,73.9,73.0,72.0,0,0,100,30.08,29.99,7,1,7,0.00
2013-7-30,80.1,67.9,61.9,73.9,73.2,72.0,0,0,100,30.06,29.99,7,2,7,0.00
2013-7-31,84.4,68.8,59.7,73.9,73.4,72.0,0,0,100,30.10,30.02,9,3,9,0.00
2013-8-1,83.5,68.2,58.8,75.0,74.1,73.0,0,0,100,30.06,29.91,10,2,10,0.00
2013-8-2,67.3,63.6,59.4,75.0,73.4,73.0,0,0,100,29.91,29.77,5,1,5,0.00
2013-8-3,77.2,63.4,58.5,73.0,72.5,71.1,0,0,100,29.83,29.70,9,1,9,0.00
2013-8-4,80.6,66.1,57.0,73.9,72.7,71.1,0,0,100,29.79,29.71,8,2,8,0.00
2013-8-5,73.2,62.9,54.7,73.9,72.8,72.0,0,0,100,30.00,29.78,14,5,14,0.00
2013-8-6,81.3,64.3,51.6,73.9,72.5,71.1,0,0,100,30.16,30.00,8,2,8,0.00
2013-8-7,81.3,65.4,54.1,73.9,72.8,71.1,0,0,100,30.21,30.14,7,2,7,0.00
2013-8-8,64.6,61.9,59.4,73.0,72.1,71.1,0,0,100,30.15,30.04,6,1,6,0.00
2013-8-9,67.3,64.6,63.1,72.0,71.5,71.1,0,0,100,30.04,29.70,8,0,8,0.00
2013-8-10,78.3,67.6,56.7,73.9,72.0,71.1,0,0,100,29.96,29.70,13,3,13,0.00
2013-8-11,80.1,65.7,53.2,73.9,72.3,71.1,0,0,100,30.02,29.94,11,2,11,0.00
2013-8-12,82.8,67.2,57.4,75.0,73.1,72.0,0,0,100,29.99,29.89,8,1,8,0.00
2013-8-13,75.4,65.8,57.9,73.9,73.4,72.0,0,0,100,29.91,29.70,7,1,7,0.00
2013-8-14,71.2,63.5,57.4,73.9,72.8,72.0,0,0,100,29.82,29.60,14,2,14,0.00
2013-8-15,78.4,63.9,51.4,73.0,72.2,70.0,0,0,100,30.07,29.82,10,3,14,0.00
2013-8-16,81.1,65.0,54.5,73.0,72.4,71.1,0,0,100,30.19,30.06,7,2,7,0.00
2013-8-17,82.2,66.0,54.9,73.9,72.8,72.0,0,0,100,30.26,30.18,9,2,9,0.00
2013-8-18,78.3,64.8,53.1,73.9,72.8,71.1,0,0,100,30.27,30.04,5,1,5,0.00
2013-8-19,84.4,70.5,56.8,75.0,73.3,71.1,0,0,100,30.04,29.85,9,2,9,0.00
2013-8-20,86.7,71.7,63.3,75.0,74.4,73.0,0,0,100,30.07,29.93,8,1,8,0.00
2013-8-21,87.3,72.5,61.5,75.9,74.7,73.9,0,0,100,30.12,30.00,7,2,7,0.00
2013-10-22,62.1,54.3,43.9,64.0,63.9,63.0,0,0,100,29.86,29.68,13,5,13,0.00
2013-10-23,52.2,44.0,36.1,64.0,62.7,61.0,0,0,100,29.76,29.56,5,1,5,0.00
2013-10-24,49.5,42.9,34.5,62.1,61.5,60.1,0,0,100,29.77,29.57,12,4,12,0.00
2013-10-25,52.0,41.0,33.4,62.1,60.8,60.1,0,0,100,30.05,29.77,10,2,10,0.00
2013-10-26,50.4,40.6,29.5,61.0,59.9,59.0,0,0,100,30.09,29.86,11,3,11,0.00
2013-10-27,53.1,45.0,35.8,62.1,60.6,60.1,0,0,100,29.96,29.75,10,2,10,0.00
2013-10-28,54.3,40.8,33.6,61.0,60.1,59.0,0,0,100,30.32,29.95,17,2,17,0.00
2013-10-29,44.8,35.6,27.9,61.0,59.5,59.0,0,0,100,30.44,30.32,7,1,8,0.00
2013-10-30,44.8,35.3,28.9,60.1,59.2,59.0,0,0,100,30.34,30.15,6,0,6,0.00
2013-10-31,56.1,43.2,29.1,66.0,61.2,59.0,0,0,100,30.25,29.78,15,3,15,0.00
2013-11-1,60.4,56.9,54.3,68.0,66.6,64.9,0,0,100,29.78,29.29,18,8,18,0.00
2013-11-2,58.8,51.7,44.2,69.1,67.3,66.0,0,0,100,29.75,29.52,13,2,13,0.00
2013-11-3,45.1,36.2,29.5,68.0,65.5,64.0,0,0,100,30.39,29.75,17,7,17,0.00
2013-11-4,38.5,31.8,26.4,66.9,66.4,64.9,0,0,100,30.70,30.38,13,4,13,0.00
2013-11-5,46.8,35.6,24.3,70.0,67.1,66.0,0,0,100,30.71,30.49,9,1,9,0.00
2013-11-6,52.9,45.9,36.7,69.1,68.2,66.9,0,0,100,30.49,29.96,13,5,13,0.00
2013-11-7,59.4,50.7,37.8,72.0,69.8,68.0,0,0,100,29.96,29.61,14,5,14,0.00
2013-11-8,45.0,37.1,30.6,69.1,66.4,63.0,0,0,100,29.91,29.71,15,3,15,0.00
2013-11-9,42.3,35.9,30.6,63.0,61.3,59.0,0,0,100,30.10,29.91,19,3,19,0.00
2013-11-10,41.9,36.5,31.6,61.0,60.2,59.0,0,0,100,30.08,29.68,8,0,8,0.00
2013-11-11,45.3,38.5,34.9,61.0,60.3,59.0,0,0,100,29.96,29.70,18,4,18,0.00
2013-11-12,40.5,32.2,25.0,60.1,59.2,57.9,0,0,100,30.04,29.80,15,4,15,0.00
2013-11-13,32.0,26.7,22.5,59.0,57.8,57.0,0,0,100,30.17,30.04,14,4,14,0.00
2013-11-14,45.0,35.3,24.8,59.0,57.9,57.0,0,0,100,30.07,29.95,9,1,9,0.00
2013-11-15,48.4,38.6,30.0,59.0,58.4,57.9,0,0,100,30.17,30.06,5,0,5,0.00
2013-11-16,47.1,37.7,32.2,60.1,58.5,57.9,0,0,100,30.35,30.17,4,0,4,0.00
2013-11-17,50.4,42.7,31.3,60.1,59.0,57.9,0,0,100,30.38,29.98,9,1,9,0.00
2013-11-18,56.3,50.7,42.6,61.0,59.9,59.0,0,0,100,29.98,29.45,20,4,20,0.00
2013-11-19,43.5,35.7,31.1,60.1,58.6,57.9,0,0,100,30.12,29.54,18,8,18,0.00
2013-11-20,35.4,30.8,27.1,59.0,57.6,57.0,0,0,100,30.61,30.12,18,7,18,0.00
2013-11-21,42.3,33.5,24.3,59.0,57.5,57.0,0,0,100,30.61,30.32,3,0,3,0.00
2013-11-22,39.7,34.4,28.8,59.0,58.0,57.0,0,0,100,30.32,29.74,3,0,3,0.00
2013-11-23,38.3,33.0,25.9,59.0,57.7,57.0,0,0,100,29.75,29.61,19,5,19,0.00
2013-11-24,26.2,21.4,18.0,57.9,56.1,55.0,0,0,100,29.89,29.60,26,11,26,0.00
2013-11-25,26.2,20.4,14.4,57.0,55.5,55.0,0,0,100,30.30,29.89,16,5,16,0.00
2013-11-26,33.3,30.3,26.2,57.9,56.5,55.9,0,0,100,30.30,30.19,8,0,8,0.00
2013-11-27,54.9,47.4,32.7,59.0,58.0,57.0,0,0,100,30.19,29.11,24,7,24,0.00
2013-11-28,38.8,27.6,17.1,57.9,56.9,55.9,0,0,100,30.35,29.23,20,6,20,0.00
2013-11-29,23.4,18.6,13.8,55.9,55.5,55.0,0,0,100,30.72,30.34,8,1,8,0.00
2013-11-30,27.7,19.7,12.0,55.9,55.1,54.0,0,0,100,30.80,30.42,6,0,6,0.00
2013-12-1,34.3,32.1,28.0,57.0,56.4,55.0,0,0,100,30.42,30.10,8,1,8,0.00
2013-12-2,38.5,35.1,32.5,59.0,57.4,57.0,0,0,100,30.10,29.92,7,1,7,0.00
2013-12-3,36.9,34.9,32.4,57.9,57.3,57.0,0,0,100,29.92,29.82,16,3,16,0.00
2013-12-4,38.5,33.3,28.2,57.9,57.1,57.0,0,0,100,30.20,29.82,15,7,16,0.00
2013-12-5,47.3,34.9,25.5,57.9,57.3,55.9,0,0,100,30.28,29.90,10,2,10,0.00
2013-12-6,47.5,41.1,33.4,59.0,58.1,57.0,0,0,100,30.08,29.84,8,1,8,0.00
2013-12-7,34.2,30.4,22.8,57.9,56.9,55.9,0,0,100,30.37,30.05,15,5,15,0.00
2013-12-8,25.9,21.8,18.3,55.9,55.7,55.0,0,0,100,30.59,30.36,15,4,15,0.00
2013-12-9,27.7,22.6,19.9,57.0,55.6,55.0,0,0,100,30.56,29.82,8,2,8,0.00
2013-12-10,32.7,25.9,16.7,57.0,56.1,55.0,0,0,100,29.86,29.70,10,2,10,0.00
2013-12-11,27.9,19.5,12.9,55.9,55.2,54.0,0,0,100,30.08,29.86,19,2,19,0.00
2013-12-12,15.6,10.8,6.4,55.0,53.8,53.1,0,0,100,30.22,29.97,16,3,16,0.00
2013-12-13,22.3,12.1,1.4,55.0,53.4,52.0,0,0,100,30.37,29.85,0,0,0,0.00
2013-12-14,10.0,4.4,-2.7,53.1,51.8,51.1,0,0,100,30.62,30.37,0,0,0,0.00
2013-12-15,17.8,12.1,7.3,54.0,53.0,52.0,0,0,100,30.44,29.38,23,6,23,0.00
2013-12-16,21.4,12.1,0.0,55.0,53.3,52.0,0,0,100,30.19,29.62,20,1,20,0.00
2013-12-17,14.0,5.9,-4.5,53.1,51.8,51.1,0,0,100,30.31,30.05,8,0,8,0.00
2013-12-18,21.6,16.2,12.4,54.0,53.2,52.0,0,0,100,30.04,29.82,18,4,18,0.00
2013-12-19,31.5,25.2,15.1,60.1,55.3,53.1,0,0,100,30.06,29.90,7,0,7,0.00
2013-12-20,34.9,30.2,24.8,63.0,62.2,60.1,0,0,100,30.14,29.91,7,0,7,0.00
2013-12-21,30.4,26.4,22.6,64.0,63.4,63.0,0,0,100,29.97,29.83,7,1,7,0.00
2013-12-22,29.7,27.7,25.3,64.9,62.6,60.1,0,0,100,30.09,29.86,8,0,8,0.00
2013-12-23,38.7,29.0,25.5,77.0,68.4,61.0,0,0,100,30.12,29.96,0,0,0,0.00
2013-12-24,30.7,21.4,9.7,80.1,78.4,77.0,0,0,100,30.13,30.03,0,0,0,0.00
2013-12-25,19.8,10.4,6.4,80.1,78.1,75.9,0,0,100,30.54,30.12,0,0,0,0.00
2013-12-26,27.0,18.4,9.3,81.0,77.9,70.0,0,0,100,30.52,30.05,0,0,0,0.00
2013-12-27,28.9,21.8,15.4,77.0,72.2,66.9,0,0,100,30.17,30.07,0,0,0,0.00
2013-12-28,31.6,26.1,17.2,71.1,67.2,64.9,0,0,100,30.14,29.91,0,0,0,0.00
2013-12-29,34.3,29.9,20.1,68.0,64.5,60.1,0,0,100,30.03,29.54,0,0,0,0.00
2013-12-30,27.3,16.7,2.5,60.1,58.6,57.0,0,0,100,30.17,29.50,0,0,0,0.00
2013-12-31,9.7,4.3,-0.6,57.0,55.7,55.0,0,0,100,30.17,30.03,0,0,0,0.00
2014-1-1,17.1,7.1,0.1,55.0,54.6,54.0,0,0,100,30.43,30.09,0,0,0,0.00
2014-1-2,0.9,-6.1,-10.1,55.0,52.6,51.1,0,0,100,30.49,30.02,19,0,19,0.00